Starlink 5346

operational
NORAD ID: 56518 Int'l Des: 2023-065 Owner: SPXS Country: US Constellation: starlink
LEOCIRCULAR

关于 Starlink 5346

正在加载描述...

实时位置

正在加载3D地球...

即将过境

高度历史

Altitude vs Time

uPlot chart will show altitude changes over time

两行轨道根数

1 56518U 23065R 25306.37730899 .00000461 00000-0 49169-4 0 9997
2 56518 43.0022 182.1195 0001065 271.5282 88.5438 15.02533691137477
Epoch: Nov 2, 2025 • Age: 35 hours

当前状态

高度 562.9 km
速度 7.59 km/s
星下点 42.97°N, 93.89°W
发射日期 May 14, 2023
运行时间 2.4 years
类型 internet

技术详情

分类 Payload
质量 305.00 kg
干质量 290.00 kg
总质量 305.00 kg
长度 0.20 m
直径 2.80 m
跨度 9.00 m
形状 Box + pan
制造商 SPXS
平台类型 Starlink
阶段状态 In Orbit
所有者/国家 SPXS/US

大型星座

Loading constellations...